Location: Bremen
(53.0830°N, 8.8000°E)
Time: 00:15:25
(UTC+01:00)

ISS - Visible Passes

Search period start: 21 February 2024 00:00
Search period end: 02 March 2024 00:00
Orbit: 415 x 417 km, 51.6° (Epoch: 20 February)

Date Brightness Start Highest point End Pass type
(mag) Time Alt. Az. Time Alt. Az. Time Alt. Az.
21 Feb -0.6 04:32:56 10° SE 04:32:56 10° SE 04:33:07 10° SE visible
21 Feb -2.5 06:05:50 14° SW 06:08:20 36° SSE 06:11:27 10° E visible
22 Feb -2.2 05:19:19 26° S 05:19:52 28° SSE 05:22:48 10° E visible
23 Feb -1.1 04:32:42 17° ESE 04:32:42 17° ESE 04:34:00 10° E visible
23 Feb -3.3 06:05:35 20° WSW 06:07:43 55° SSE 06:11:02 10° E visible
24 Feb -3.1 05:18:52 44° S 05:19:08 45° SSE 05:22:23 10° E visible
25 Feb -1.5 04:32:06 22° ESE 04:32:06 22° ESE 04:33:40 10° E visible
25 Feb -3.6 06:04:58 21° WSW 06:07:03 69° S 06:10:24 10° E visible
26 Feb -3.7 05:18:08 60° SSW 05:18:22 63° S 05:21:42 10° E visible
27 Feb -1.7 04:31:15 27° E 04:31:15 27° E 04:32:58 10° E visible
27 Feb -3.7 06:04:07 20° W 06:06:16 67° S 06:09:37 10° ESE visible
28 Feb -3.8 05:17:12 63° SW 05:17:31 70° S 05:20:53 10° E visible
29 Feb -1.9 04:30:15 29° E 04:30:15 29° E 04:32:05 10° E visible
29 Feb -3.4 06:03:08 19° W 06:05:20 53° SSW 06:08:37 10° ESE visible
01 Mar -3.8 05:16:10 57° SW 05:16:32 62° S 05:19:51 10° ESE visible
